Terminal Aerodrome Forecast
Issued by NWS

Home | Current Version | Previous Version | Text Only | Print | Product List | Glossary On
Versions: 1 2 3 4 5 6 7 8 9 10 11 12 13 14 15
000
FTAK31 PAJN 301120
TAFASI
TAF
PASI 301120Z 3012/3112 00000KT P6SM VCSH OVC018
      TEMPO 3012/3015 SCT018 OVC070
     FM301600 VRB04KT P6SM SCT020 OVC080
     FM302000 28009KT P6SM BKN060
     FM310200 32006KT P6SM SCT060=

USA.gov is the U.S. government's official web portal to all federal, state and local government web resources and services.